Regional Weather Roundup
Issued by NWS

Home | Current Version | Previous Version | Text Only | Print | Product List | Glossary Off
Versions: 1 2 3 4 5 6 7 8 9 10 11 12 13 14 15 16 17 18 19 20 21 22 23 24 25 26 27 28 29 30 31 32 33 34 35 36 37 38 39 40 41 42 43 44 45 46 47 48 49 50

000
ASUS45 KSLC 240810
RWRUT

UTAH REGIONAL WEATHER ROUNDUP
NATIONAL WEATHER SERVICE SALT LAKE CITY UT
200 AM MDT THU JUL 24 2014

UTZ001>011-023>025-240900-

NORTHERN UTAH

CITY           SKY/WX    TMP DP  RH WIND       PRES   REMARKS
HILL AFB       PTCLDY    84  44  24 S18       29.99F
LOGAN          NOT AVBL
OGDEN          PTCLDY    86  43  22 S22G28    29.95S
PROVO AIRPORT  MOCLDY    82  46  28 SE17      30.04S
SALT LAKE CITY PTCLDY    86  43  22 S18G29    29.95R
VERNAL         CLOUDY    77  42  28 N3        30.15F
WENDOVER       CLEAR     84  25  11 NW16G24   29.98R
HEBER CITY     PTCLDY    72  43  35 CALM      30.15S
WEST JORDAN    CLEAR     84  52  32 S13G21    30.02R

$$

UTZ012>022-026-027-240900-

SOUTHERN UTAH

CITY           SKY/WX    TMP DP  RH WIND       PRES   REMARKS
BRYCE CANYON   MOCLDY    70  48  45 SE14      30.38S
CEDAR CITY     MOCLDY    77  37  23 SE3       30.16F
MILFORD        MOCLDY    81  35  19 SW13      30.09S
MOAB/CYNLANDS  CLEAR     81  40  23 SW7       30.09R
PRICE          MOCLDY    72  51  47 NE13      30.19F
ST GEORGE      MOSUNNY   88  36  15 SE7       29.95S

$$

REGIONAL REPORTS     COLORADO/ARIZONA

CITY           SKY/WX    TMP DP  RH WIND       PRES   REMARKS
CRAIG, CO      PTCLDY    65  46  50 S5        30.24F
GRAND JUNCTION MOCLDY    84  42  22 SE15      30.13S
RIFLE          PTCLDY    74  43  32 W6        30.21F
MONTROSE       MOCLDY    77  46  33 S6        30.28R
CORTEZ         MOCLDY    77  49  37 E14       30.31F
PAGE, AZ       CLOUDY    87  50  27 SE20G29   30.09S
GRAND CANYON   MOCLDY    74  47  38 S8        30.33F
KINGMAN        PTCLDY    79  32  18 S7        30.02S
FLAGSTAFF      CLOUDY    67  50  54 CALM      30.39F

$$

REGIONAL REPORTS    NEVADA/IDAHO/WYOMING

CITY           SKY/WX    TMP DP  RH WIND       PRES   REMARKS
LAS VEGAS, NV  CLEAR     93  27   9 SW9       29.83S
ELY            CLEAR     70  21  15 SW8       30.19S
ELKO           CLEAR     61  29  29 SW5       30.13R
POCATELLO, ID  CLEAR     72  38  29 S10       30.01R
BURLEY         PTCLDY    65  46  50 S6        30.00S
EVANSTON, WY   CLEAR     65  43  44 SW12      30.22F
ROCK SPRINGS   PTCLDY    70  34  26 SE9       30.24S

$$


USA.gov is the U.S. government's official web portal to all federal, state and local government web resources and services.